x

Buoy I01 - Eastern Maine Shelf (44034) Wave Buoy

8:04pm - Fri 2nd Dec 2016 All times are EST. -5 hours from GMT.

  • Sig Wave height 4.3ft
  • Peak Period 8s
  • Wind
    9mph, 11mph gusts
  • Sea Temp 51°f
  • 空気 Temp 48°f
  • Sea Pressure 1002.9mb
  • Buoy I01 - Eastern Maine Shelf
  • Buoy I01 - Eastern Maine Shelf

More Historic Weather Station data

Upgrade to MSW Pro to gain access to the past 30 days of data for over 8000 Wavebouys and Weather Stations around the globe.

Join Pro

Comparision Forecast

View Surf forecast
   
Fri 12/02 8:04pm 4.5ft 8s 9 11 mph 1002.9mb 51f 48f
7:04pm 4.5ft 11s 4 7 mph 1003.4mb 51f 47f
6:04pm 4.5ft 11s 13 16 mph 1003.6mb 51f 47f
5:04pm 5ft 8s 9 11 mph 1003.9mb 51f 47f
3:04pm 5.5ft 6s 13 16 mph 1003.6mb 51f 48f
2:04pm 6ft 11s 13 16 mph 1003.2mb 51f 48f
1:04pm 6ft 8s 13 16 mph 1003mb 51f 47f
12:04pm 6ft 11s 13 18 mph 1003.2mb 51f 46f
11:04am 6ft 11s 13 16 mph 1003.9mb 51f 46f
10:04am 7.5ft 11s 16 18 mph 1004.5mb 51f 46f
9:04am 6ft 8s 16 18 mph 1004.5mb 51f 46f
8:04am 7ft 11s 13 16 mph 1004.3mb 51f 46f
7:04am 7ft 11s 18 20 mph 1003.9mb 51f 45f
6:04am 6ft 11s 18 22 mph 1003mb 51f 46f
5:04am 6ft 8s 20 25 mph 1002.1mb 51f 45f
4:04am 7ft 8s 22 25 mph 1001.4mb 51f 46f
3:04am 5.5ft 11s 20 25 mph 1001.3mb 51f 46f
2:04am 5.5ft 8s 18 22 mph 1000.6mb 51f 46f
1:04am 5ft 8s 20 25 mph 999.6mb 51f 47f
12:04am 5ft 8s 20 25 mph 999.3mb 51f 47f
Thu 12/01 11:04pm 5ft 8s 13 18 mph 999.1mb 51f 45f
10:04pm 5ft 8s 13 16 mph 998.5mb 51f 43f
9:04pm 5ft 11s 13 16 mph 998.4mb 51f 42f
8:04pm 5ft 11s 13 16 mph 998.2mb 51f 42f
7:04pm 5ft 8s 18 20 mph 997.9mb 51f 41f
6:04pm 5.5ft 8s 18 22 mph 997.7mb 51f 41f
5:04pm 5.5ft 6s 20 25 mph 996.7mb 51f 41f
4:04pm 7.5ft 8s 22 27 mph 995.4mb 51f 41f
3:04pm 8ft 8s 22 29 mph 993.7mb 51f 42f
2:04pm 9ft 8s 25 31 mph 992mb 51f 46f
12:04pm 13.5ft 11s 18 25 mph 990.1mb 51f 51f
11:04am 13ft 8s 22 29 mph 990.6mb 51f 52f
10:04am 15.5ft 11s 31 38 mph 992.2mb 51f 51f
9:04am 14.5ft 8s 36 43 mph 994.3mb 51f 50f
8:04am 16ft 8s 40 49 mph 996.6mb 51f 49f
7:04am 11ft 8s 38 47 mph 998.4mb 51f 48f
6:04am 11ft 8s 36 45 mph 1001.7mb 51f 47f
5:04am 10ft 8s 34 40 mph 1004.3mb 51f 47f
4:04am 10ft 6s 31 38 mph 1006.9mb 51f 47f
3:04am 8.5ft 6s 27 34 mph 1009.4mb 51f 47f
2:04am 7.5ft 6s 29 34 mph 1009.9mb 51f 46f
1:04am 7.5ft 5s 27 34 mph 1011mb 51f 46f
12:04am 4.5ft 5s 25 29 mph 1012.7mb 51f 45f
Wed 11/30 11:04pm 4.5ft 5s 22 27 mph 1013.4mb 51f 46f
10:04pm 4.5ft 5s 22 31 mph 1014.5mb 51f 46f
9:04pm 6ft 8s 20 25 mph 1015.7mb 51f 46f
8:04pm 7.5ft 8s 22 27 mph 1016.5mb 51f 46f
7:04pm 6.5ft 8s 22 27 mph 1016.8mb 51f 46f
5:04pm 5ft 8s 20 22 mph 1017.6mb 51f 44f
4:04pm 5ft 8s 16 20 mph 1017.6mb 51f 43f
3:04pm 4.5ft 8s 13 18 mph 1017mb 51f 42f
2:04pm 5ft 6s 16 20 mph 1016.5mb 51f 41f
1:04pm 5ft 8s 20 25 mph 1015.5mb 51f 41f
12:04pm 4.5ft 8s 16 20 mph 1015.3mb 51f 41f
11:04am 5ft 6s 11 16 mph 1015.4mb 51f 41f
10:04am 5ft 8s 16 18 mph 1015.8mb 51f 41f
9:04am 6ft 8s 11 16 mph 1015mb 51f 41f
8:04am 6ft 8s 18 22 mph 1013.1mb 51f 42f
7:04am 6ft 8s 20 25 mph 1011.6mb 51f 44f
6:04am 7ft 8s 20 25 mph 1011.3mb 51f 44f
5:04am 8.5ft 8s 20 25 mph 1009.2mb 51f 46f
4:04am 10.5ft 8s 16 22 mph 1007.7mb 50f 49f
3:04am 12ft 8s 13 18 mph 1006.7mb 50f 50f
2:04am 12ft 8s 13 20 mph 1006.7mb 51f 53f
1:04am 10ft 8s 27 36 mph 1006.5mb 51f 54f
12:04am 9ft 6s 22 29 mph 1007.7mb 51f 52f
Tue 11/29 11:04pm 10.5ft 6s 29 38 mph 1008.6mb 51f 51f
10:04pm 9ft 6s 31 38 mph 1010.1mb 51f 49f
9:04pm 7.5ft 6s 27 34 mph 1013.3mb 51f 49f
8:04pm 6ft 5s 29 34 mph 1014.8mb 51f 48f
7:04pm 5ft 5s 29 34 mph 1016.3mb 51f 48f
6:04pm 4.5ft 5s 25 29 mph 1018.6mb 51f 48f
5:04pm 3.5ft 4s 25 29 mph 1019.2mb 51f 48f
4:04pm 2ft 4s 18 22 mph 1019.9mb 51f 47f
3:04pm 1.6ft 3s 18 20 mph 1020.8mb 51f 45f
2:04pm 1.3ft 6s 16 20 mph 1022.1mb 51f 44f
1:04pm 0.7ft  -  7 11 mph 1023.1mb 51f 43f
12:04pm 1.6ft 11s 9 13 mph 1022.1mb 51f 42f
11:04am 0.7ft  -  7 9 mph 1023.2mb 51f 41f
10:04am 1ft 4s 4 9 mph 1024.4mb 51f 40f
9:04am 1ft 3s 9 11 mph 1024.2mb 51f 39f
8:04am 1ft 3s 7 9 mph 1024.3mb 51f 39f
7:04am 1.3ft 3s 4 7 mph 1024.8mb 51f 38f
6:04am 1.3ft 3s 7 11 mph 1024.2mb 51f 38f
5:04am 1.3ft 3s 11 13 mph 1023.5mb 51f 38f
4:04am 1ft 5s 9 13 mph 1023.7mb 51f 39f
3:04am 1.3ft 3s 11 16 mph 1022.9mb 51f 39f